This is the latest recevied weather packets stored in our database for station/object KD5FHA. If no packets are shown the sender has not sent any weather packets the latest 10 day(s).
| Time | Temp. | Humidity | Pressure | Rain* | Wind** | Luminosity | Snow |
|---|---|---|---|---|---|---|---|
| 1778084018 | 13.33° C | 85% | 1014.5 hPa | 0 mm | - | 309 W/m² | - |
| 1778083715 | 13.33° C | 85% | 1014.4 hPa | 0 mm | - | 304 W/m² | - |
| 1778083412 | 13.33° C | 86% | 1014.6 hPa | 0 mm | - | 274 W/m² | - |
| 1778083111 | 13.33° C | 87% | 1015.2 hPa | 0 mm | - | 334 W/m² | - |
| 1778082806 | 13.33° C | 88% | 1014.8 hPa | 0 mm | - | 359 W/m² | - |
| 1778081679 | 12.78° C | 90% | 1014.8 hPa | 0 mm | - | 160 W/m² | - |
| 1778081377 | 12.22° C | 90% | 1014.6 hPa | 0 mm | - | 238 W/m² | - |
| 1778081073 | 12.22° C | 90% | 1015.1 hPa | 0 mm | - | 180 W/m² | - |
| 1778080772 | 11.67° C | 89% | 1015.1 hPa | 0.51 mm | - | 95 W/m² | - |
| 1778080468 | 12.22° C | 88% | 1015.1 hPa | 0.51 mm | - | 93 W/m² | - |
| 1778080166 | 12.22° C | 87% | 1015.6 hPa | 0 mm | - | 87 W/m² | - |
| 1778079862 | 12.22° C | 86% | 1015.7 hPa | 0 mm | - | 65 W/m² | - |
| 1778079559 | 12.22° C | 85% | 1015.7 hPa | 0 mm | - | 57 W/m² | - |
| 1778079255 | 12.22° C | 84% | 1016.6 hPa | 0 mm | - | 26 W/m² | - |
| 1778078953 | 12.22° C | 84% | 1016.8 hPa | 0 mm | - | 18 W/m² | - |
| 1778078649 | 12.22° C | 84% | 1016.1 hPa | 0 mm | - | 41 W/m² | - |
| 1778078348 | 12.22° C | 84% | 1016.3 hPa | 0 mm | - | 41 W/m² | - |
| 1778078044 | 12.22° C | 83% | 1016 hPa | 0 mm | - | 31 W/m² | - |
| 1778077743 | 12.22° C | 83% | 1015.8 hPa | 0 mm | - | 45 W/m² | - |
| 1778077440 | 12.78° C | 83% | 1015.5 hPa | 0 mm | - | 26 W/m² | - |
| 1778077138 | 12.78° C | 82% | 1014.4 hPa | 0 mm | - | 52 W/m² | - |
| 1778076836 | 12.78° C | 81% | 1015.2 hPa | 0 mm | - | 38 W/m² | - |
| 1778076534 | 12.78° C | 81% | 1014.5 hPa | 0 mm | - | 57 W/m² | - |
| 1778076230 | 12.78° C | 81% | 1014.5 hPa | 0 mm | - | 53 W/m² | - |
| 1778075928 | 12.78° C | 80% | 1014.6 hPa | 0 mm | - | 67 W/m² | - |
* Rain latest hour (hover to see other rain measurements)
** Current wind speed in m/s (hover to see current wind gust speed)